Radiation Dose at Monitoring Post of Fukushima Daini Nuclear Power Station
Date,Time,MP-1(microSv/h),MP-2(microSv/h),MP-3(microSv/h),MP-4(microSv/h),MP-5(microSv/h),MP-6(microSv/h),MP-7(microSv/h),Wind Direction,Wind Velocity(m/s),Rain
2020/05/15,00:00,0.182,0.167,0.272,0.254,0.264,0.143,0.087,west-northwest,3.1,No
2020/05/15,00:10,0.181,0.167,0.274,0.255,0.262,0.144,0.087,west-northwest,2.9,No
2020/05/15,00:20,0.183,0.167,0.272,0.254,0.263,0.144,0.086,west-northwest,1.5,No
2020/05/15,00:30,0.182,0.167,0.272,0.255,0.263,0.144,0.087,west-northwest,3.2,No
2020/05/15,00:40,0.183,0.168,0.273,0.255,0.264,0.144,0.086,west,4.0,No
2020/05/15,00:50,0.182,0.166,0.272,0.256,0.262,0.143,0.087,west,3.7,No
2020/05/15,01:00,0.182,0.167,0.274,0.255,0.262,0.144,0.086,west-northwest,2.7,No
2020/05/15,01:10,0.182,0.167,0.272,0.254,0.264,0.143,0.087,west-northwest,2.8,No
2020/05/15,01:20,0.182,0.166,0.272,0.256,0.262,0.144,0.087,west-northwest,3.0,No
2020/05/15,01:30,0.183,0.166,0.272,0.254,0.263,0.142,0.087,northwest,1.8,No
2020/05/15,01:40,0.181,0.167,0.271,0.255,0.262,0.143,0.087,north-northwest,1.5,No
2020/05/15,01:50,0.182,0.166,0.272,0.255,0.262,0.144,0.087,west-northwest,2.7,No
2020/05/15,02:00,0.182,0.167,0.271,0.253,0.264,0.144,0.086,west,4.2,No
2020/05/15,02:10,0.181,0.167,0.271,0.255,0.261,0.144,0.086,west,3.7,No
2020/05/15,02:20,0.182,0.166,0.273,0.253,0.263,0.143,0.087,west,5.6,No
2020/05/15,02:30,0.182,0.167,0.271,0.255,0.262,0.143,0.086,west,6.9,No
2020/05/15,02:40,0.182,0.167,0.272,0.254,0.264,0.143,0.087,west,7.5,No
2020/05/15,02:50,0.182,0.167,0.273,0.254,0.260,0.142,0.087,west-northwest,6.7,No
2020/05/15,03:00,0.182,0.166,0.271,0.254,0.264,0.144,0.087,west-northwest,6.0,No
2020/05/15,03:10,0.183,0.167,0.273,0.255,0.261,0.143,0.086,west,4.4,No
2020/05/15,03:20,0.181,0.166,0.271,0.255,0.264,0.143,0.087,west-northwest,3.7,No
2020/05/15,03:30,0.184,0.167,0.271,0.255,0.261,0.144,0.087,west,4.8,No
2020/05/15,03:40,0.182,0.166,0.271,0.255,0.263,0.144,0.086,west-southwest,3.8,No
2020/05/15,03:50,0.183,0.167,0.271,0.255,0.262,0.144,0.087,southwest,2.6,No
2020/05/15,04:00,0.183,0.167,0.272,0.254,0.264,0.142,0.086,south,2.4,No
2020/05/15,04:10,0.183,0.167,0.271,0.256,0.262,0.143,0.088,south-southwest,2.9,No
2020/05/15,04:20,0.183,0.167,0.273,0.254,0.264,0.143,0.086,south,1.5,No
2020/05/15,04:30,0.183,0.167,0.272,0.255,0.263,0.143,0.087,east,1.7,No
2020/05/15,04:40,0.183,0.167,0.272,0.254,0.264,0.143,0.087,southeast,1.4,No
2020/05/15,04:50,0.182,0.167,0.273,0.254,0.263,0.143,0.087,southeast,3.4,No
2020/05/15,05:00,0.183,0.166,0.272,0.255,0.264,0.143,0.087,southeast,2.1,No
2020/05/15,05:10,0.182,0.166,0.273,0.255,0.263,0.143,0.087,south,1.1,No
2020/05/15,05:20,0.184,0.167,0.272,0.255,0.262,0.143,0.087,south,1.2,No
2020/05/15,05:30,0.182,0.167,0.272,0.254,0.262,0.144,0.087,south-southwest,0.9,No
2020/05/15,05:40,0.182,0.166,0.273,0.255,0.263,0.143,0.087,southwest,1.4,No
2020/05/15,05:50,0.183,0.167,0.272,0.254,0.262,0.144,0.087,south-southwest,1.6,No
2020/05/15,06:00,0.182,0.167,0.274,0.254,0.263,0.143,0.086,south,1.8,No
2020/05/15,06:10,0.182,0.167,0.271,0.255,0.264,0.144,0.087,south,2.1,No
2020/05/15,06:20,0.181,0.167,0.274,0.253,0.262,0.144,0.086,south,2.3,No
2020/05/15,06:30,0.183,0.166,0.272,0.255,0.263,0.144,0.087,south,1.8,No
2020/05/15,06:40,0.182,0.166,0.270,0.254,0.262,0.143,0.086,southwest,2.3,No
2020/05/15,06:50,0.183,0.166,0.272,0.254,0.263,0.144,0.087,west,2.8,No
2020/05/15,07:00,0.181,0.167,0.271,0.254,0.261,0.143,0.087,west,1.5,No
2020/05/15,07:10,0.183,0.167,0.271,0.255,0.263,0.143,0.087,west-northwest,1.0,No
2020/05/15,07:20,0.182,0.167,0.271,0.254,0.263,0.143,0.088,west-northwest,1.1,No
2020/05/15,07:30,0.183,0.167,0.272,0.254,0.260,0.144,0.087,-,CALM,No
2020/05/15,07:40,0.183,0.168,0.273,0.253,0.264,0.143,0.088,-,CALM,No
2020/05/15,07:50,0.182,0.167,0.269,0.255,0.262,0.143,0.087,southwest,1.7,No
2020/05/15,08:00,0.182,0.167,0.273,0.254,0.260,0.143,0.087,south-southwest,1.3,No
2020/05/15,08:10,0.182,0.167,0.272,0.252,0.265,0.144,0.087,south-southwest,1.3,No
2020/05/15,08:20,0.183,0.166,0.270,0.255,0.263,0.144,0.087,south-southwest,1.3,No
2020/05/15,08:30,0.182,0.167,0.273,0.255,0.259,0.144,0.087,south,2.2,No
2020/05/15,08:40,0.182,0.167,0.271,0.253,0.264,0.144,0.087,south-southeast,2.9,No
2020/05/15,08:50,0.184,0.166,0.271,0.255,0.262,0.144,0.088,south,2.2,No
2020/05/15,09:00,0.182,0.167,0.273,0.255,0.261,0.144,0.087,south,2.0,No
2020/05/15,09:10,0.182,0.168,0.271,0.254,0.263,0.144,0.087,south,2.2,No
2020/05/15,09:20,0.183,0.166,0.268,0.256,0.264,0.143,0.086,south,2.3,No
2020/05/15,09:30,0.181,0.166,0.272,0.255,0.262,0.144,0.086,south-southeast,2.0,No
2020/05/15,09:40,0.182,0.167,0.273,0.253,0.259,0.143,0.088,south-southeast,2.0,No
2020/05/15,09:50,0.184,0.165,0.271,0.250,0.263,0.143,0.087,south-southeast,2.6,No
2020/05/15,10:00,0.183,0.166,0.269,0.254,0.264,0.145,0.088,south-southeast,3.6,No
2020/05/15,10:10,0.182,0.168,0.273,-,0.262,0.144,0.088,southeast,3.1,No
2020/05/15,10:20,0.183,0.167,0.274,-,0.260,0.143,0.088,south-southeast,3.6,No
2020/05/15,10:30,0.183,0.166,0.272,-,0.260,0.144,0.087,south-southeast,2.2,No
2020/05/15,10:40,0.182,0.167,0.269,-,0.262,0.144,0.088,south-southeast,2.5,No
2020/05/15,10:50,0.183,0.167,0.274,-,0.264,0.143,0.087,south,2.1,No
2020/05/15,11:00,0.182,0.166,0.273,-,0.264,0.143,0.086,south,2.5,No
2020/05/15,11:10,0.180,0.166,0.272,-,0.261,0.143,0.085,south,3.1,No
2020/05/15,11:20,0.183,0.166,0.270,-,0.260,0.144,0.086,south,2.1,No
2020/05/15,11:30,0.183,0.167,0.268,-,0.259,0.143,0.087,south-southwest,2.2,No
2020/05/15,11:40,0.181,0.166,0.269,-,0.260,0.143,0.086,south,2.7,No
2020/05/15,11:50,0.180,0.165,0.269,-,0.261,0.142,0.086,south,2.1,No
2020/05/15,12:00,0.181,0.165,0.272,-,0.260,0.143,0.086,southeast,2.7,No
2020/05/15,12:10,0.183,0.166,0.274,-,0.261,0.143,0.087,east-southeast,2.2,No
2020/05/15,12:20,0.182,0.167,0.272,-,0.262,0.144,0.088,east-northeast,1.6,No
2020/05/15,12:30,0.182,0.167,0.271,-,0.265,0.144,0.086,northeast,3.1,No
2020/05/15,12:40,0.183,0.167,0.274,-,0.264,0.143,0.087,northeast,3.2,No
2020/05/15,12:50,0.183,0.167,0.273,-,0.260,0.144,0.087,northeast,3.1,No
2020/05/15,13:00,0.182,0.166,0.271,-,0.263,0.144,0.086,east-northeast,1.2,No
2020/05/15,13:10,0.184,0.167,0.272,-,0.266,0.144,0.088,north-northeast,1.3,No
2020/05/15,13:20,0.182,0.167,0.274,-,0.264,0.143,0.087,north-northwest,1.3,No
2020/05/15,13:30,0.183,0.167,0.272,-,0.261,0.144,0.087,north,1.9,No
2020/05/15,13:40,0.182,0.166,0.271,-,0.263,0.144,0.086,north-northeast,1.0,No
2020/05/15,13:50,0.181,0.168,0.273,-,0.264,0.143,0.087,north-northeast,1.4,No
2020/05/15,14:00,0.184,0.166,0.273,-,0.263,0.143,0.087,north-northeast,1.3,No
2020/05/15,14:10,0.182,0.166,0.271,-,0.261,0.144,0.086,north,1.9,No
2020/05/15,14:20,0.182,0.167,0.275,-,0.263,0.143,0.087,north,1.8,No
2020/05/15,14:30,0.183,0.167,0.274,-,0.264,0.143,0.087,north,1.9,No
2020/05/15,14:40,0.183,0.167,0.270,-,0.262,0.143,0.087,north,1.7,No
2020/05/15,14:50,0.182,0.167,0.275,-,0.261,0.143,0.087,north-northeast,1.4,No
2020/05/15,15:00,0.182,0.165,0.273,-,0.265,0.143,0.087,north,1.1,No
2020/05/15,15:10,0.181,0.168,0.270,0.257,0.264,0.144,0.087,northeast,1.0,No
2020/05/15,15:20,0.182,0.167,0.274,0.262,0.261,0.144,0.087,east-northeast,2.2,No
2020/05/15,15:30,0.183,0.166,0.273,0.260,0.262,0.143,0.086,northeast,1.1,No
2020/05/15,15:40,0.181,0.168,0.271,0.258,0.265,0.144,0.087,north-northeast,1.2,No
2020/05/15,15:50,0.183,0.166,0.274,0.260,0.261,0.144,0.087,east-northeast,1.0,No
2020/05/15,16:00,0.183,0.167,0.273,0.260,0.261,0.143,0.086,northeast,1.2,No
2020/05/15,16:10,0.182,0.166,0.273,0.258,0.265,0.144,0.088,north-northwest,0.6,No
2020/05/15,16:20,0.183,0.166,0.273,0.261,0.263,0.144,0.087,north-northeast,1.0,No
2020/05/15,16:30,0.181,0.165,0.272,0.260,0.261,0.143,0.087,north-northeast,0.8,No
2020/05/15,16:40,0.183,0.165,0.274,0.260,0.265,0.145,0.088,north,1.3,No
2020/05/15,16:50,0.183,0.167,0.274,0.261,0.261,0.144,0.087,north,1.6,No
2020/05/15,17:00,0.182,0.166,0.272,0.258,0.262,0.143,0.087,north,2.0,No
2020/05/15,17:10,0.183,0.167,0.273,0.261,0.265,0.145,0.086,north,1.7,No
2020/05/15,17:20,0.182,0.165,0.272,0.259,0.262,0.143,0.086,north-northeast,1.3,No
2020/05/15,17:30,0.183,0.167,0.275,0.262,0.264,0.144,0.086,north-northeast,0.9,No
2020/05/15,17:40,0.182,0.167,0.273,0.260,0.263,0.144,0.087,-,CALM,No
2020/05/15,17:50,0.183,0.166,0.274,0.259,0.262,0.144,0.088,-,CALM,No
2020/05/15,18:00,0.182,0.166,0.272,0.261,0.263,0.144,0.087,-,CALM,No
2020/05/15,18:10,0.181,0.167,0.273,0.260,0.261,0.143,0.087,-,CALM,No
2020/05/15,18:20,0.182,0.167,0.272,0.261,0.265,0.144,0.086,north-northeast,0.9,No
2020/05/15,18:30,0.181,0.167,0.272,0.260,0.262,0.144,0.087,northeast,0.6,No
2020/05/15,18:40,0.183,0.166,0.273,0.261,0.264,0.144,0.087,north-northeast,1.8,No
2020/05/15,18:50,0.182,0.167,0.274,0.259,0.262,0.145,0.086,-,CALM,No
2020/05/15,19:00,0.184,0.166,0.272,0.261,0.263,0.143,0.087,-,CALM,No
2020/05/15,19:10,0.182,0.167,0.273,0.259,0.262,0.143,0.087,east-northeast,1.0,No
2020/05/15,19:20,0.185,0.167,0.274,0.260,0.263,0.144,0.087,northeast,0.7,No
2020/05/15,19:30,0.181,0.167,0.273,0.259,0.264,0.145,0.087,-,CALM,No
2020/05/15,19:40,0.183,0.166,0.274,0.262,0.263,0.144,0.086,-,CALM,No
2020/05/15,19:50,0.182,0.167,0.273,0.259,0.263,0.145,0.088,-,CALM,No
2020/05/15,20:00,0.184,0.167,0.274,0.261,0.262,0.144,0.088,-,CALM,No
2020/05/15,20:10,0.181,0.167,0.274,0.259,0.264,0.143,0.087,-,CALM,No
2020/05/15,20:20,0.182,0.166,0.274,0.261,0.262,0.143,0.088,-,CALM,No
2020/05/15,20:30,0.183,0.167,0.272,0.260,0.265,0.144,0.087,-,CALM,No
2020/05/15,20:40,0.183,0.167,0.274,0.263,0.261,0.143,0.087,-,CALM,No
2020/05/15,20:50,0.183,0.167,0.273,0.261,0.265,0.144,0.087,west-northwest,0.6,No
2020/05/15,21:00,0.182,0.167,0.275,0.262,0.262,0.143,0.087,north,0.7,No
2020/05/15,21:10,0.183,0.167,0.274,0.259,0.265,0.144,0.087,-,CALM,No
2020/05/15,21:20,0.183,0.168,0.274,0.262,0.262,0.144,0.087,north,0.6,No
2020/05/15,21:30,0.183,0.167,0.272,0.261,0.264,0.145,0.087,-,CALM,No
2020/05/15,21:40,0.183,0.168,0.273,0.261,0.262,0.144,0.088,-,CALM,No
2020/05/15,21:50,0.184,0.166,0.273,0.260,0.264,0.144,0.087,north,1.5,No
2020/05/15,22:00,0.183,0.167,0.274,0.261,0.264,0.145,0.087,north,1.5,No
2020/05/15,22:10,0.183,0.167,0.274,0.261,0.263,0.145,0.088,north-northeast,1.5,No
2020/05/15,22:20,0.183,0.168,0.275,0.261,0.264,0.144,0.088,north,1.1,No
2020/05/15,22:30,0.184,0.168,0.274,0.261,0.264,0.144,0.088,north-northwest,0.9,No
2020/05/15,22:40,0.182,0.168,0.271,0.260,0.262,0.144,0.088,north,1.1,No
2020/05/15,22:50,0.185,0.168,0.275,0.260,0.262,0.145,0.088,north-northwest,1.0,No
2020/05/15,23:00,0.182,0.168,0.274,0.261,0.264,0.144,0.087,north-northwest,1.5,No
2020/05/15,23:10,0.184,0.168,0.275,0.261,0.264,0.145,0.089,north,1.3,No
2020/05/15,23:20,0.183,0.169,0.275,0.261,0.263,0.145,0.088,north-northwest,2.2,No
2020/05/15,23:30,0.184,0.168,0.275,0.263,0.264,0.145,0.089,northwest,2.8,No
2020/05/15,23:40,0.183,0.168,0.274,0.260,0.264,0.144,0.088,northwest,2.5,No
2020/05/15,23:50,0.185,0.168,0.275,0.263,0.264,0.145,0.088,north-northwest,5.0,No
